This is the latest recevied weather packets stored in our database for station/object 9W3FAB-1. If no packets are shown the sender has not sent any weather packets the latest 10 day(s).
| Time | Temp. | Humidity | Pressure | Rain* | Wind** | Luminosity | Snow |
|---|---|---|---|---|---|---|---|
| 1778134615 | 30.56° C | 100% | 1004.6 hPa | - | - | - | - |
| 1778133715 | 31.11° C | 100% | 1004.9 hPa | - | - | - | - |
| 1778132814 | 30.56° C | 100% | 1005 hPa | - | - | - | - |
| 1778131912 | 31.11° C | 100% | 1005.4 hPa | - | - | - | - |
| 1778131011 | 30° C | 100% | 1005.9 hPa | - | - | - | - |
| 1778130110 | 30° C | 100% | 1006.2 hPa | - | - | - | - |
| 1778129210 | 30° C | 100% | 1006.4 hPa | - | - | - | - |
| 1778128309 | 30° C | 100% | 1006.8 hPa | - | - | - | - |
| 1778127408 | 30° C | 100% | 1007.1 hPa | - | - | - | - |
| 1778126507 | 30° C | 100% | 1007.4 hPa | - | - | - | - |
| 1778125606 | 30° C | 100% | 1007.6 hPa | - | - | - | - |
| 1778124705 | 30° C | 100% | 1007.8 hPa | - | - | - | - |
| 1778123804 | 30° C | 100% | 1007.9 hPa | - | - | - | - |
| 1778122904 | 29.44° C | 100% | 1008.1 hPa | - | - | - | - |
| 1778122003 | 30° C | 100% | 1008 hPa | - | - | - | - |
| 1778121102 | 29.44° C | 100% | 1008.2 hPa | - | - | - | - |
| 1778120201 | 28.89° C | 100% | 1008.3 hPa | - | - | - | - |
| 1778119300 | 28.89° C | 100% | 1008.3 hPa | - | - | - | - |
| 1778118399 | 28.89° C | 100% | 1008.4 hPa | - | - | - | - |
| 1778117498 | 28.33° C | 100% | 1008.4 hPa | - | - | - | - |
| 1778116597 | 28.33° C | 100% | 1008.5 hPa | - | - | - | - |
| 1778115696 | 28.33° C | 100% | 1008.5 hPa | - | - | - | - |
| 1778114795 | 27.78° C | 100% | 1008.5 hPa | - | - | - | - |
| 1778113895 | 27.78° C | 100% | 1008.3 hPa | - | - | - | - |
| 1778112994 | 27.78° C | 100% | 1008 hPa | - | - | - | - |
* Rain since midnight (hover to see other rain measurements)
** Current wind speed in m/s (hover to see current wind gust speed)